Location: Powder Track
(41.8531°N, 72.3584°W)
Time: 00:26:11
(UTC+00:00)

Vanguard 1 Rocket - Pass Details

Date: 11 August 2021
Orbit: 650 x 4226 km, 34.3° (Epoch: 19 September)

Event Time Altitude Azimuth Distance (km) Brightness Sun altitude
Rises 16:21:29 0° 275° (W) 8,149 12.1 62.3°
Reaches altitude 10° 16:27:47 10° 272° (W) 6,761 11.9 62.6°
Maximum altitude 16:46:48 55° 203° (SSW) 2,737 11.7 63.1°
Drops below altitude 10° 16:56:45 10° 129° (SE) 3,728 10.9 63.2°
Sets 16:59:11 0° 124° (SE) 4,388 11.1 63.2°
